Location: Unspecified
(0.0000°N, 0.0000°E)
Time: 13:14:34
(UTC+00:00)

Envisat - Pass Details

Date: 11 June 2021
Orbit: 764 x 766 km, 98.1° (Epoch: 18 June)

Event Time Altitude Azimuth Distance (km) Brightness Sun altitude
Rises 04:52:19 0° 16° (NNE) 3,213 6.8 -15.5°
Reaches altitude 10° 04:54:37 10° 18° (NNE) 2,290 6.1 -14.9°
Maximum altitude 04:59:39 73° 102° (ESE) 799 3.2 -13.8°
Drops below altitude 10° 05:04:42 10° 186° (S) 2,301 5.2 -12.6°
Sets 05:07:01 0° 188° (S) 3,229 5.9 -12.1°
